User: anonymous   Login
Location: Unspecified
(0.0000°N, 0.0000°E)
Time: 19:06:07
(UTC+00:00)
Language:

STARLINK-34896 - Orbit

View from above orbital plane
View from above orbital plane
View from above satellite
View from above satellite

Ground track
Ground track

The orbit is defined by the following mean orbital elements,

1 66288U          26145.40617014 +.00000000 +00000-0 +51732-3 0 00005
2 66288  53.1590 194.0829 0001215  78.9399 281.1741 15.34405559    07
Epoch (UTC): 25 May 2026 09:44:53
Eccentricity: 0.0001215
inclination: 53.1590°
perigee height: 462 km
apogee height: 464 km
right ascension of ascending node: 194.0829°
argument of perigee: 78.9399°
revolutions per day: 15.34405559
mean anomaly at epoch: 281.1741°

The dashed part of the orbit path shows where the satellite is in the earth's shadow,  

DLR